Find Starlink 31166

NORAD ID: 58789 Int'l Des: 2024-012 Owner: SPXS Country: US Constellation: starlink operational
LEOCIRCULAR

Live Position

Loading 3D Globe...

About Starlink 31166

Description loading...

Upcoming Passes

Passes for default location (London). Set your location on the main map for personalized predictions.

Altitude History

Loading altitude history...

Two-Line Element Set

1 58789U 24012C 26121.69173572 -.00000332 00000-0 -25228-5 0 9992
2 58789 43.0041 225.7758 0001603 273.2747 86.7922 15.27586373129349
Epoch: May 1, 2026 • Age: 11 hours

Current Status

Altitude 487.2 km
Velocity 7.63 km/s
Sub-Earth Point 43.07°N, 28.88°E
Launch Date Jan 15, 2024
Age 2.2 years
Type internet

Technical Details

Classification Payload
Mass 730.00 kg
Dry Mass 700.00 kg
Total Mass 730.00 kg
Length 0.30 m
Diameter 4.10 m
Span 29.00 m
Shape Box + pan
Manufacturer SPXS
Bus Type Starlink V2M
Phase Status In Orbit
Owner/State SPXS/US

Most Searched